Flag for Oman Weather past 2 weeks in Salalah, Oman

Now
84 °F

Warm.


Feels Like: 90 °F
Forecast: 78 / 88 °F
Wind: 13 mph from South

Location: Salalah Airport

Current Time: Aug 31, 2014 at 12:31:36 PM

Latest Report: Aug 31, 2014 at 10:50 AM


Visibility: N/A

Pressure: 29.68 "Hg

Humidity: 66%

Dew point: 72 °F

Location of SalalahLocation

Historic Weather in Salalah — Graph

°F

Salalah temperature yesterday

Maximum temperature yesterday: 86 °F (at 2:50 PM)
Minimum temperature yesterday: 79 °F (at 12:50 AM)
Average temperature yesterday: 81 °F

Past Weeks' High & Low Weather Summary

 TemperatureHumidityPressure
High86 °F (Aug 30, 2:50 PM)94% (Aug 17, 12:50 AM)29.86 "Hg (Aug 17, 12:50 AM)
Low75 °F (Aug 17, 12:50 AM)62% (Aug 21, 12:50 PM)29.59 "Hg (Aug 23, 2:50 PM)
Average79 °F82%29.70 "Hg
* Reported Aug 16 10:50 AM — Aug 31 10:50 AM, Salalah, Weather by CustomWeather, © 2014

Note: Actual official high and low records may vary slightly from our data, if they occured in-between our weather recording intervals... More about our weather records

Advertising

Salalah weather history for previous 24 hours

 ConditionsComfort  
Time TempWeatherWind HumidityBarometerVisibility
10:50 AM
Aug 31
84 °FWarm.13 mph66%29.68 "HgN/A
9:50 AM84 °FPassing clouds.7 mph66%29.71 "HgN/A
8:50 AM82 °FSunny.3 mph70%29.68 "Hg10 mi
7:50 AM81 °FSunny.2 mph74%29.68 "Hg10 mi
6:50 AM77 °FSunny.5 mph79%29.65 "Hg10 mi
5:50 AM77 °FWarm.3 mph83%29.65 "HgN/A
4:50 AM79 °FPassing clouds.3 mph84%29.65 "Hg5 mi
3:50 AM79 °FPassing clouds.3 mph84%29.65 "Hg5 mi
2:50 AM79 °FPassing clouds.7 mph84%29.65 "Hg5 mi
1:50 AM79 °FPassing clouds.8 mph89%29.68 "Hg5 mi
12:50 AM79 °FPassing clouds.8 mph89%29.71 "Hg5 mi
11:50 PM
Aug 30
79 °FPassing clouds.8 mph89%29.71 "Hg5 mi
10:50 PM81 °FPassing clouds.8 mph79%29.71 "Hg6 mi
9:50 PM81 °FPassing clouds.6 mph84%29.71 "HgN/A
8:50 PM81 °FPassing clouds.7 mph79%29.68 "Hg5 mi
7:50 PM81 °FPassing clouds.8 mph84%29.65 "HgN/A
6:50 PM81 °FPassing clouds.8 mph79%29.65 "HgN/A
5:50 PM82 °FScattered clouds.8 mph74%29.62 "HgN/A
4:50 PM84 °FWarm.9 mph66%29.62 "HgN/A
3:50 PM84 °FScattered clouds.12 mph66%29.62 "HgN/A
2:50 PM86 °FWarm.12 mph62%29.65 "HgN/A
1:50 PM84 °FScattered clouds.12 mph66%29.68 "HgN/A
12:50 PM84 °FScattered clouds.12 mph70%29.68 "HgN/A
Weather by CustomWeather, © 2014

See weather overviewHow to use our weather pages